This is the latest recevied weather packets stored in our database for station/object KN6ETB-1. If no packets are shown the sender has not sent any weather packets the latest 10 day(s).
| Time | Temp. | Humidity | Pressure | Rain* | Wind** | Luminosity | Snow |
|---|---|---|---|---|---|---|---|
| 1777682848 | 25.56° C | 60% | 1007.9 hPa | 0 mm | - | 118 W/m² | - |
| 1777682544 | 26.11° C | 60% | 1008 hPa | 0 mm | - | 183 W/m² | - |
| 1777682242 | 25.56° C | 60% | 1007.8 hPa | 0 mm | - | 223 W/m² | - |
| 1777681940 | 25° C | 61% | 1008.2 hPa | 0 mm | - | 330 W/m² | - |
| 1777681635 | 25° C | 61% | 1008 hPa | 0 mm | - | 365 W/m² | - |
| 1777681333 | 24.44° C | 61% | 1008.1 hPa | 0 mm | - | 309 W/m² | - |
| 1777681030 | 23.89° C | 63% | 1008.3 hPa | 0 mm | - | 261 W/m² | - |
| 1777680728 | 23.89° C | 62% | 1008.3 hPa | 0 mm | - | 196 W/m² | - |
| 1777680425 | 24.44° C | 61% | 1008.2 hPa | 0 mm | - | 192 W/m² | - |
| 1777680123 | 24.44° C | 61% | 1008.3 hPa | 0 mm | - | 228 W/m² | - |
| 1777679818 | 24.44° C | 60% | 1008.5 hPa | 0 mm | - | 217 W/m² | - |
| 1777679514 | 24.44° C | 60% | 1008.4 hPa | 0 mm | - | 228 W/m² | - |
| 1777679210 | 24.44° C | 60% | 1008.5 hPa | 0 mm | - | 240 W/m² | - |
| 1777678908 | 25° C | 59% | 1008.5 hPa | 0 mm | - | 250 W/m² | - |
| 1777678605 | 25° C | 59% | 1008.6 hPa | 0 mm | - | 284 W/m² | - |
| 1777678302 | 24.44° C | 59% | 1008.7 hPa | 0 mm | - | 297 W/m² | - |
| 1777677998 | 24.44° C | 60% | 1008.6 hPa | 0 mm | - | 295 W/m² | - |
| 1777677696 | 24.44° C | 60% | 1008.8 hPa | 0 mm | - | 282 W/m² | - |
| 1777677393 | 24.44° C | 59% | 1008.9 hPa | 0 mm | - | 211 W/m² | - |
| 1777677092 | 25° C | 58% | 1008.8 hPa | 0 mm | - | 210 W/m² | - |
| 1777676790 | 25° C | 57% | 1009 hPa | 0 mm | - | 347 W/m² | - |
| 1777676488 | 25.56° C | 55% | 1009.3 hPa | 0 mm | - | 386 W/m² | - |
| 1777676185 | 25.56° C | 56% | 1009.1 hPa | 0 mm | - | 391 W/m² | - |
| 1777675881 | 25.56° C | 55% | 1009.1 hPa | 0 mm | - | 433 W/m² | - |
| 1777675578 | 25° C | 56% | 1009.4 hPa | 0 mm | - | 406 W/m² | - |
* Rain latest hour (hover to see other rain measurements)
** Current wind speed in m/s (hover to see current wind gust speed)